Regional Weather Roundup
Issued by NWS

Home | Current Version | Previous Version | Graphics & Text | Print | Product List | Glossary On
Versions: 1 2 3 4 5 6 7 8 9 10 11 12 13 14 15 16 17 18 19 20 21 22 23 24 25 26 27 28 29 30 31 32 33 34 35 36 37 38 39 40 41 42 43 44 45 46 47 48 49 50
000
ASUS43 KBIS 220759
RWRND

NORTH DAKOTA REGIONAL WEATHER ROUNDUP
NATIONAL WEATHER SERVICE BISMARCK ND
300 AM CDT MON SEP 22 2014

NOTE: "FAIR" INDICATES FEW OR NO CLOUDS BELOW 12,000 FEET WITH NO
SIGNIFICANT WEATHER AND/OR OBSTRUCTIONS TO VISIBILITY.


NDZ001>003-009>011-017-220900-
NORTHWEST NORTH DAKOTA

CITY           SKY/WX    TMP DP  RH WIND       PRES   REMARKS
WILLISTON      CLEAR     43  36  76 CALM      30.10F
MINOT          CLEAR     56  41  57 S3        30.12F
$$

NDZ018>021-031>035-040>046-220900-
SOUTHWEST NORTH DAKOTA

CITY           SKY/WX    TMP DP  RH WIND       PRES   REMARKS
BISMARCK       CLEAR     46  42  86 NE5       30.19F
DICKINSON      CLEAR     47  38  71 S10       30.14F
GARRISON         N/A     49  44  83 CALM      30.15F
HETTINGER ARPT CLEAR     50  39  66 SE8       30.18F
$$

NDZ004>008-012>016-024-026-027-054-220900-
NORTHEAST NORTH DAKOTA

CITY           SKY/WX    TMP DP  RH WIND       PRES   REMARKS
GRAND FORKS    CLEAR     49  47  93 S8        30.14F
DEVILS LAKE    CLEAR     52  43  71 CALM      30.14S
$$

NDZ022-023-025-028>030-036>039-047>053-220900-
SOUTHEAST NORTH DAKOTA

CITY           SKY/WX    TMP DP  RH WIND       PRES   REMARKS
FARGO          CLEAR     51  47  86 S8        30.19F
$$



USA.gov is the U.S. government's official web portal to all federal, state and local government web resources and services.